Theta_e
302 303 303 303 304 304 304 304 305 304 304 299 297 298 295 295 294 305 311 312 308 295 284 289 287 287 291 297 295 296 294 293 294 293 294 292 294 291 291 291 290 291 290 290 289 290 287 289 289 292 294 295 296 299 299 299 300 299 292 295 294 307 284 283 283 287 291 295 297 298 298 297 294 294 295 292 288 290 284 281 284 283 283 281 280 280 284
302 303 303 303 304 304 304 305 305 305 304 300 299 294 293 295 296 298 308 309 305 292 283 283 282 288 292 293 292 295 294 293 292 292 293 292 292 290 290 292 293 290 292 291 288 292 283 292 291 289 295 293 300 300 299 300 296 298 296 290 295 288 286 284 279 278 280 284 288 290 295 296 290 289 292 295 295 293 290 288 285 283 283 283 280 276 284
302 302 303 303 304 304 304 305 305 305 304 304 298 294 295 295 298 300 301 303 299 290 290 285 281 286 288 288 288 291 293 295 295 293 292 295 292 291 288 291 291 291 292 291 292 294 291 288 294 292 294 293 298 300 298 301 298 303 307 305 299 287 285 284 278 274 274 274 275 278 283 287 289 293 293 295 294 291 286 284 280 279 283 285 281 283 290
302 302 303 303 304 304 304 304 304 304 304 304 299 296 294 292 283 289 290 294 293 292 295 292 289 283 286 281 287 291 289 293 295 295 293 294 294 292 291 293 293 292 291 289 291 293 297 293 291 292 291 293 296 298 301 303 301 307 310 304 299 287 290 286 281 277 277 279 283 288 289 289 286 291 293 293 294 294 289 283 280 280 280 279 286 291 292
302 302 303 303 303 304 304 305 304 304 304 304 298 296 294 294 286 285 284 289 289 289 289 291 289 285 289 281 289 286 289 291 292 296 289 295 293 293 293 293 290 288 289 287 288 292 293 295 294 293 293 295 296 299 299 302 308 310 305 304 294 289 284 290 290 289 290 289 289 291 292 290 292 291 291 293 292 292 291 286 285 287 281 280 288 295 292
302 302 303 303 303 304 304 305 304 304 303 304 301 294 297 285 288 291 291 287 282 281 283 290 289 292 291 284 291 288 288 288 284 293 295 296 294 289 291 293 292 290 290 289 283 287 290 289 286 293 293 292 294 294 299 297 303 303 299 302 296 289 283 290 291 290 292 292 292 292 291 291 291 292 292 291 293 293 289 287 290 287 281 283 291 295 293
302 302 303 303 303 304 304 305 304 304 302 304 299 290 292 292 291 293 295 286 287 286 291 292 289 287 290 288 290 286 287 286 289 292 291 292 291 291 281 288 290 290 290 288 284 286 281 282 289 290 289 292 290 289 293 297 300 299 297 299 298 290 285 292 293 290 290 291 292 293 291 290 291 291 292 293 293 293 293 291 292 292 290 292 292 290 288
302 302 303 303 304 304 304 305 305 304 302 304 298 294 290 288 289 286 291 291 289 289 288 288 286 285 290 284 288 289 287 288 290 293 291 283 288 292 287 287 291 289 289 287 283 286 288 287 283 291 290 288 291 290 292 291 298 299 297 297 298 292 286 292 292 287 288 291 292 291 292 291 288 290 290 290 292 294 294 293 292 292 290 291 291 288 287
302 302 303 303 303 304 304 305 305 303 302 299 297 295 295 294 295 295 289 284 286 289 286 286 284 280 283 282 286 291 289 289 292 288 295 292 288 290 288 289 289 290 288 287 287 289 288 288 289 291 291 286 294 289 291 296 292 298 295 295 293 292 285 290 286 283 283 290 290 290 291 290 288 287 287 288 287 287 289 289 292 289 287 289 289 287 285
302 302 302 303 303 304 305 305 305 304 302 297 294 294 298 294 296 297 290 285 291 287 287 284 282 281 283 285 287 290 290 291 291 283 292 294 295 294 292 292 288 286 287 286 287 290 290 290 291 292 293 294 293 294 294 296 293 293 293 295 288 291 286 284 284 284 282 290 289 290 287 286 284 284 286 287 288 290 292 293 293 292 292 288 286 285 291
301 302 302 303 303 304 305 305 305 304 301 294 293 293 296 295 293 292 286 283 282 284 284 284 282 286 288 290 288 290 290 290 292 285 285 293 293 294 293 291 287 284 286 289 293 293 293 293 294 294 293 293 292 293 295 299 298 297 293 291 291 293 290 286 288 283 283 287 286 287 281 276 278 289 290 289 288 290 289 287 289 290 289 286 289 288 290
301 302 302 303 303 304 304 305 305 305 302 297 296 294 297 298 295 290 281 281 281 284 283 283 284 288 289 290 290 288 288 288 289 293 288 290 292 292 291 289 286 281 291 294 294 294 295 296 295 294 293 293 295 297 296 295 296 297 296 292 288 287 287 285 287 283 282 283 283 281 274 277 289 293 290 291 292 292 289 288 288 288 289 290 289 289 289
301 302 302 302 303 304 304 305 305 305 305 300 296 295 298 300 297 291 283 282 280 282 280 283 287 289 289 289 289 289 289 290 291 291 292 289 289 290 291 289 287 289 294 293 293 292 290 289 289 290 292 292 294 295 294 293 293 295 296 296 290 285 286 284 283 282 283 283 283 275 275 285 289 291 290 292 290 289 290 288 289 290 290 290 288 289 289
301 301 302 302 303 304 304 305 305 306 306 303 296 296 298 298 294 290 284 281 282 282 284 284 286 287 287 287 287 287 288 288 288 289 288 290 288 288 290 292 293 293 293 293 291 290 284 283 282 282 285 286 286 286 290 292 292 293 294 294 295 291 287 285 284 284 281 280 281 281 286 285 285 283 285 286 283 285 284 283 286 290 289 288 287 288 288
301 301 302 302 303 303 304 305 305 306 305 305 297 297 298 298 297 293 293 283 281 283 284 280 283 286 286 286 287 285 285 285 285 285 290 292 289 291 291 293 294 293 292 291 286 286 283 280 279 279 279 279 276 279 288 287 292 293 294 293 293 291 286 285 284 282 283 281 278 281 280 278 281 286 290 292 292 290 290 285 283 291 290 289 287 286 287
301 301 301 302 303 303 304 304 305 305 305 305 298 296 298 299 299 296 291 284 280 279 282 287 289 287 285 285 287 285 282 281 283 283 285 287 288 290 293 294 294 293 293 291 288 284 281 280 278 275 276 278 283 280 278 285 284 290 292 293 293 292 290 286 285 282 280 278 275 276 274 276 283 285 289 291 292 293 291 284 281 287 290 290 288 287 287
301 301 301 302 303 303 304 304 305 305 305 304 298 296 297 300 298 295 289 285 283 280 287 289 289 287 282 282 285 284 285 282 283 280 281 282 287 289 290 293 293 293 291 285 284 282 282 281 280 278 280 285 279 278 284 283 280 283 288 290 289 287 285 285 284 281 281 279 276 276 280 280 286 289 289 291 292 294 288 278 280 289 290 290 289 288 288
301 301 301 302 302 303 304 304 305 305 304 305 300 296 298 301 300 296 292 283 280 282 286 290 287 283 282 283 283 287 287 284 284 283 282 285 287 287 289 290 289 292 292 284 283 280 279 278 280 279 278 286 286 282 274 282 278 280 281 282 280 281 282 283 281 281 281 281 280 282 282 285 288 288 290 291 292 291 282 276 283 290 290 290 289 289 290
301 301 301 302 302 303 303 304 305 305 305 304 301 298 297 301 301 299 293 288 282 281 287 293 291 288 290 291 287 289 289 287 285 280 280 281 283 289 290 292 292 284 289 282 281 280 279 278 281 279 278 282 284 279 282 277 278 283 281 278 279 279 279 281 281 280 279 278 277 279 280 285 288 290 291 291 288 279 275 285 292 291 291 292 293 292 293
301 301 301 301 302 303 303 304 304 305 305 305 301 296 299 301 300 299 294 289 284 283 287 289 290 288 292 287 284 283 284 285 283 280 280 279 286 288 285 284 289 289 284 284 280 282 279 277 278 281 279 279 281 284 278 280 284 281 281 282 277 281 278 278 278 279 279 278 275 275 274 282 289 289 287 288 282 282 290 291 291 293 292 291 291 292 291
300 300 301 301 302 303 303 304 304 305 305 305 303 296 297 299 301 299 297 292 283 282 283 292 291 289 290 289 290 289 287 284 284 282 285 283 286 282 278 278 283 284 281 282 281 281 281 278 278 279 283 282 281 281 278 277 281 285 285 282 281 284 279 279 279 281 275 275 275 276 283 286 289 287 282 285 287 290 291 291 289 291 292 291 290 290 290
300 300 300 301 302 303 303 304 304 304 305 305 303 296 293 298 301 301 301 295 285 284 286 291 293 291 293 292 292 291 291 290 293 290 287 284 286 284 284 286 285 286 287 285 280 280 282 281 282 279 278 280 282 278 280 276 274 280 284 283 276 285 281 281 279 282 278 279 282 286 288 287 288 288 287 288 290 291 291 291 290 290 290 292 291 290 291
300 300 300 301 301 302 303 303 304 304 304 305 301 295 294 297 299 301 296 293 291 289 292 292 291 292 294 294 295 293 294 294 294 292 289 283 282 283 284 284 284 289 289 286 283 281 282 281 279 280 278 279 279 278 280 278 276 278 277 285 284 288 289 289 286 283 288 288 288 288 287 288 288 289 290 289 290 291 291 291 290 291 292 292 291 291 291
300 300 300 300 301 302 302 303 303 304 304 304 302 293 293 295 299 297 295 291 286 287 285 288 285 283 285 290 292 294 294 294 297 295 295 289 282 281 282 286 290 288 284 288 287 286 281 280 283 282 277 280 281 277 275 276 275 281 279 280 283 287 287 284 283 285 284 279 287 286 286 287 288 289 290 291 292 291 292 291 291 291 292 292 293 292 292
299 300 300 300 301 302 302 303 303 303 303 304 302 299 298 296 296 296 291 285 286 282 281 281 282 291 293 294 293 293 294 295 296 296 293 292 288 284 285 289 292 289 287 289 285 283 282 279 279 278 278 282 282 277 279 277 278 281 277 279 279 282 287 284 283 282 281 282 285 286 287 287 289 289 289 289 290 291 291 291 291 291 292 293 293 293 292
299 299 300 300 301 301 302 303 303 303 303 303 302 294 294 294 298 295 294 292 290 285 281 281 285 293 293 293 292 295 297 295 294 294 295 296 294 292 292 290 288 291 290 289 286 283 279 279 278 278 277 279 282 278 279 281 282 282 281 280 283 284 286 279 282 281 283 286 286 286 286 286 286 288 289 290 290 290 290 291 291 292 291 291 291 291 291
299 299 300 300 301 301 302 302 303 303 303 303 300 295 295 296 297 295 292 292 288 284 282 281 284 289 293 292 295 296 296 295 294 294 294 294 294 293 290 287 287 286 286 285 284 281 281 279 279 279 279 280 283 283 281 281 280 276 277 282 284 284 281 284 284 281 280 280 283 285 281 279 283 285 287 288 290 291 290 290 290 290 290 290 289 289 289
299 299 299 300 301 301 302 302 303 303 303 303 300 297 297 296 295 296 296 294 288 283 282 282 282 288 291 291 295 294 296 295 293 293 293 294 293 291 289 287 285 285 284 281 282 282 280 279 280 279 278 279 280 279 280 280 280 279 280 282 283 282 282 279 278 280 278 283 287 286 286 286 286 286 287 288 289 289 289 289 288 289 289 289 288 288 287
299 299 299 300 301 301 302 302 302 302 303 302 296 296 297 297 296 297 299 299 293 288 284 285 286 287 282 287 294 292 295 295 294 293 293 293 292 290 288 287 286 286 283 280 280 279 279 281 280 279 278 283 279 277 278 277 276 276 279 284 285 286 287 285 285 285 286 289 289 290 288 286 287 288 288 289 289 288 287 287 288 288 288 287 287 287 286
299 299 300 300 301 301 302 302 303 302 302 296 294 291 286 291 295 297 299 301 296 291 283 281 281 282 288 293 291 291 293 295 294 294 293 291 290 289 288 287 287 288 285 282 280 278 281 281 279 281 285 285 278 276 274 276 275 279 282 284 286 287 287 287 287 287 285 291 292 293 291 291 291 289 288 288 289 288 286 286 286 287 286 286 286 285 286
299 299 300 300 301 301 302 302 303 302 301 293 290 284 283 283 292 297 300 299 296 290 284 282 282 284 285 291 292 289 292 293 292 291 292 291 290 290 291 287 286 287 282 281 281 281 280 279 279 281 283 284 282 275 276 275 275 277 282 285 286 286 286 286 287 289 289 290 291 292 291 291 291 291 290 289 288 288 287 287 289 290 288 287 285 285 286
299 299 300 301 301 302 302 303 303 302 294 293 288 286 285 289 292 298 300 299 297 292 284 282 281 282 281 283 289 293 294 295 295 291 288 290 289 289 289 288 286 287 286 282 282 281 281 280 278 281 280 284 282 273 275 276 276 277 283 283 285 285 286 286 287 287 288 289 289 288 287 288 290 289 287 290 289 288 287 287 287 288 290 286 285 286 286
299 300 300 301 301 302 303 303 302 300 293 297 301 302 302 303 303 302 300 296 295 289 287 282 280 280 281 284 289 292 294 287 287 286 286 287 290 286 284 287 286 286 292 285 280 280 282 279 278 278 282 282 277 277 274 273 278 282 283 285 284 286 286 285 286 287 288 289 289 284 283 284 286 288 289 288 287 286 285 285 285 285 285 285 285 285 285
300 300 301 301 302 303 303 303 303 302 300 295 293 295 298 301 298 301 297 296 292 289 285 282 279 279 281 284 285 287 291 285 286 283 282 287 288 283 284 284 284 283 284 281 282 282 282 280 279 278 279 279 276 274 274 278 283 283 283 283 283 283 284 285 286 287 288 288 289 290 289 289 289 288 288 288 286 286 285 284 285 284 283 284 284 285 284
300 301 301 302 302 303 303 302 293 295 292 292 294 295 296 302 301 301 298 293 287 285 281 282 281 279 280 280 280 282 291 287 283 284 282 285 288 287 284 282 281 281 283 285 281 280 280 281 281 278 278 277 276 275 276 279 282 283 283 283 283 284 284 284 284 285 286 287 288 287 287 288 288 287 287 286 285 284 284 284 284 284 283 283 284 284 284
300 301 301 302 303 302 295 298 292 293 292 292 293 302 304 304 303 295 296 299 292 283 280 282 281 280 279 277 278 283 290 284 285 285 286 281 281 286 284 280 279 280 284 281 280 279 280 284 281 276 274 274 275 276 278 281 282 283 284 284 284 284 285 285 285 285 286 287 286 286 286 285 285 285 284 285 285 284 284 283 284 283 283 284 284 284 284
301 302 303 303 298 293 289 289 294 295 293 295 298 304 304 303 299 297 295 294 296 292 286 280 281 281 279 279 281 283 285 279 282 281 282 281 281 281 281 279 279 281 280 278 278 279 281 283 277 275 275 274 277 282 282 283 283 283 283 284 286 285 285 285 287 287 286 287 288 286 285 284 283 283 284 285 284 284 284 284 284 284 284 283 283 283 284
302 302 294 291 290 285 285 286 293 296 301 301 303 295 291 292 285 284 286 285 289 294 284 284 280 283 282 280 280 286 285 279 281 281 281 283 280 280 281 280 280 281 274 278 281 285 281 278 277 276 276 280 282 284 284 284 284 284 285 286 287 286 285 286 287 287 285 284 285 286 285 285 284 284 283 284 283 283 282 283 283 284 285 285 284 285 284
301 294 292 291 288 285 286 291 298 301 296 297 293 286 284 284 282 281 281 283 282 282 283 281 282 282 280 280 282 286 286 282 279 279 278 282 280 277 280 276 280 278 275 276 278 281 275 276 276 273 275 277 279 283 285 285 285 285 285 285 287 287 287 287 287 287 285 283 283 285 285 284 284 284 284 283 283 283 283 283 283 284 285 285 284 283 283
293 290 287 286 286 287 292 296 302 298 292 286 285 283 280 282 281 279 282 281 280 282 281 281 283 283 283 282 282 281 286 282 278 279 279 280 284 278 281 279 281 277 272 272 276 280 274 271 274 270 274 277 280 284 284 284 284 284 285 285 285 286 286 287 288 288 287 287 287 287 286 286 286 285 284 284 284 283 283 283 284 284 284 285 284 283 283
290 289 288 285 289 292 293 294 293 291 285 282 279 280 279 279 281 281 280 278 279 281 283 283 283 282 284 283 282 281 286 287 283 282 278 278 283 281 277 276 280 274 272 273 279 280 277 272 270 269 273 278 281 283 283 284 284 284 285 286 285 284 285 286 287 288 288 287 288 287 288 287 286 284 285 285 284 284 283 283 284 284 284 284 283 283 283
290 289 291 292 293 292 293 288 285 283 280 282 278 276 278 279 281 281 281 278 278 280 282 282 280 282 283 285 284 284 283 287 284 280 280 279 283 279 277 278 278 271 269 276 279 279 275 270 270 273 277 280 282 283 283 284 284 284 284 285 285 285 285 285 286 287 289 289 289 288 287 286 285 285 285 284 284 284 283 282 283 283 285 285 285 284 284
299 298 295 291 289 286 285 282 283 281 275 276 273 274 277 276 278 277 279 281 281 281 282 288 286 286 288 287 286 286 285 287 283 282 279 278 282 280 276 275 274 271 276 280 277 272 270 270 271 273 277 281 282 282 283 284 284 284 284 285 285 285 285 285 286 287 286 289 290 291 290 287 286 286 285 286 285 284 283 283 283 283 283 284 284 284 284
294 294 289 286 283 283 284 276 283 281 277 278 275 273 275 275 277 278 278 278 279 282 283 281 283 283 282 285 283 283 284 285 285 282 281 281 279 276 275 272 273 276 279 275 272 269 271 275 275 278 280 283 286 283 283 283 283 282 284 285 284 284 285 285 285 285 285 286 287 287 287 285 287 286 286 285 286 286 284 283 283 284 283 283 283 283 284
285 285 282 278 277 280 280 271 279 277 274 275 279 277 276 273 275 275 276 280 282 282 284 283 283 284 283 285 284 283 283 282 283 280 278 279 275 277 273 272 277 277 273 270 270 269 274 274 278 280 284 283 282 283 283 283 284 284 285 284 284 284 285 285 286 285 285 287 289 289 288 288 287 286 286 285 285 287 286 285 284 283 283 283 283 283 284
283 280 277 274 274 275 278 275 276 274 278 280 278 278 278 279 279 282 284 285 282 283 284 283 284 282 282 283 283 282 282 281 279 280 281 279 274 273 279 279 276 269 269 267 267 269 270 275 277 280 281 282 282 282 283 284 285 284 284 285 284 284 285 285 285 286 287 288 289 289 289 287 287 287 287 287 285 285 285 286 284 285 284 283 283 283 284
285 283 282 279 274 277 280 276 276 278 280 280 281 282 283 285 285 285 286 284 284 283 284 284 283 283 281 281 281 282 282 281 278 280 279 274 274 278 281 275 270 270 267 266 266 268 273 275 276 279 281 282 283 284 284 284 284 284 284 284 284 284 285 286 286 286 287 287 287 287 287 288 288 288 287 286 285 285 285 285 285 284 285 284 284 284 284
280 282 281 274 273 277 277 278 279 280 283 284 284 285 285 284 284 284 286 285 286 285 285 282 280 280 281 282 281 280 281 281 277 279 279 278 279 274 271 270 268 270 270 267 268 273 275 277 279 279 282 283 283 284 284 284 284 284 284 284 284 284 284 284 286 285 286 286 285 285 285 287 289 289 289 288 287 286 286 285 285 285 285 285 285 284 284
284 281 279 277 279 280 279 279 280 280 281 282 283 284 284 285 283 284 286 284 285 285 284 281 280 279 279 282 280 279 278 281 274 275 279 275 270 268 268 267 268 268 273 277 277 277 277 280 281 281 282 283 283 284 285 284 285 286 285 285 285 284 285 285 285 285 284 285 285 286 286 287 287 288 288 287 287 288 289 287 286 286 286 286 285 285 284
282 281 282 281 280 280 280 281 280 279 281 282 281 281 282 283 283 285 285 285 284 282 283 284 282 281 281 280 278 278 278 280 279 279 274 272 272 273 271 269 269 271 275 281 281 281 281 281 281 282 284 284 284 285 286 286 285 284 285 285 286 286 286 285 285 285 285 285 285 287 286 286 286 287 288 289 290 290 289 287 286 285 286 285 286 285 285
283 282 281 281 280 280 280 279 278 278 279 282 282 283 282 282 282 285 287 285 284 281 281 281 282 280 279 276 275 271 275 280 277 274 274 274 278 275 271 272 278 280 282 283 284 284 283 282 282 282 283 283 284 284 285 285 285 286 286 287 287 286 286 286 287 286 285 286 285 286 286 287 287 288 288 288 289 289 289 287 287 286 286 286 285 286 285
281 279 280 281 282 283 283 283 281 281 282 283 283 285 283 284 285 287 287 283 281 281 281 282 281 279 276 274 276 279 281 278 276 276 272 276 280 275 277 279 281 282 284 283 284 284 284 284 284 282 283 283 284 284 285 286 286 286 286 286 286 286 286 285 285 286 286 286 286 285 287 287 287 286 286 287 287 287 285 285 286 286 286 286 287 287 287
Wind_Speed
18 19 20 20 21 21 21 22 20 18 17 5 5 3 1 2 1 4 3 1 7 5 1 1 2 1 2 7 4 5 5 3 4 8 3 5 3 3 4 4 4 2 2 2 2 6 1 1 5 2 3 6 7 5 7 3 5 7 1 1 2 3 1 1 3 3 2 1 4 10 7 7 7 5 4 4 3 1 4 3 5 6 1 2 1 2 2
18 19 20 20 22 22 21 22 21 18 12 5 5 1 1 0 1 3 1 2 5 4 1 2 4 2 4 3 4 4 3 3 5 3 4 2 3 3 3 4 1 2 1 0 2 4 2 6 6 3 1 1 6 5 6 5 1 3 3 3 2 1 3 2 1 1 3 1 3 4 6 9 3 1 4 3 3 2 1 3 2 1 3 6 7 4 2
19 19 20 20 22 22 22 23 20 17 12 6 2 0 0 1 1 1 2 5 3 2 2 2 1 1 3 2 6 7 2 4 8 4 4 2 2 3 3 2 5 3 3 1 2 6 4 1 6 3 1 2 2 2 4 8 5 3 2 3 2 4 1 1 2 3 4 3 4 3 4 6 2 2 4 7 9 8 3 1 2 3 2 3 3 3 1
19 19 20 20 22 22 23 22 19 17 14 2 3 3 1 1 2 4 3 4 4 2 1 3 2 0 1 3 3 3 4 5 5 5 4 1 4 2 3 4 1 6 6 5 8 8 7 2 1 3 4 4 5 7 9 6 6 7 10 6 5 2 0 2 1 3 2 2 2 3 4 4 5 1 9 5 4 6 4 3 4 2 1 6 3 10 10
19 19 20 20 23 22 23 23 20 19 16 7 6 0 0 0 3 0 1 4 4 0 2 1 2 1 1 1 2 3 5 4 3 5 1 5 5 2 4 5 6 4 3 2 5 7 6 8 7 6 2 2 1 9 10 8 7 12 8 4 4 2 4 3 3 0 2 5 3 4 3 8 6 8 3 8 7 4 9 5 0 1 6 3 0 11 13
19 19 20 21 22 22 23 23 23 21 18 8 4 2 0 3 1 1 3 4 1 2 3 2 1 0 1 1 0 4 5 4 4 4 1 6 4 4 4 9 7 7 3 2 4 5 3 5 4 6 5 3 6 5 8 8 8 7 3 4 4 3 2 5 3 6 10 4 3 5 7 5 5 10 7 7 6 11 7 1 2 1 3 7 8 8 11
18 19 20 20 22 22 22 23 25 24 19 6 0 3 2 2 0 1 1 1 2 2 0 2 3 5 2 0 2 4 5 6 4 1 4 6 7 8 3 6 8 8 8 4 3 4 3 5 3 2 5 3 2 3 2 3 7 3 3 5 2 4 2 2 2 4 11 14 12 2 10 7 9 8 7 4 11 7 11 8 9 9 8 9 12 11 8
19 19 20 20 22 22 22 23 24 24 22 0 2 5 1 2 1 3 5 2 0 1 0 1 3 4 3 1 3 3 5 4 5 3 3 4 5 6 5 9 7 7 7 5 4 3 1 0 2 3 4 6 1 1 2 1 3 3 4 2 6 2 1 3 2 4 7 10 11 7 12 13 11 9 10 9 4 9 7 9 9 14 12 9 9 11 8
19 19 20 21 22 22 22 23 23 23 18 5 5 1 2 1 1 1 1 2 2 0 1 2 2 2 3 3 2 2 8 3 2 4 4 3 4 6 5 5 5 5 9 5 3 1 2 3 5 7 4 4 1 2 2 2 2 1 2 2 5 4 0 3 3 4 3 6 6 5 8 13 12 12 12 12 5 7 1 5 3 7 8 7 8 6 3
19 19 19 21 21 21 21 22 22 22 16 4 1 3 2 1 2 2 2 2 5 1 0 1 3 3 2 1 1 1 3 4 1 0 4 2 4 2 5 4 5 5 8 8 5 7 5 8 10 7 7 6 5 1 6 3 2 3 3 1 6 2 3 3 2 5 0 3 6 6 1 5 7 8 10 10 3 2 3 4 6 4 14 11 7 4 2
19 18 20 20 20 20 20 20 20 19 9 4 3 2 3 4 3 4 4 5 5 4 1 4 4 2 2 5 1 1 2 6 2 2 2 2 6 5 3 4 3 2 2 6 8 6 9 9 11 7 6 4 3 3 4 10 9 6 1 3 1 4 6 4 1 4 2 5 8 3 5 4 1 2 6 4 3 1 8 3 4 3 2 3 5 8 7
18 18 19 20 19 20 20 19 18 16 9 2 1 1 4 1 1 2 2 6 1 3 5 3 3 4 1 6 1 1 3 5 5 0 0 1 3 4 4 3 3 4 8 6 6 7 10 7 6 4 4 2 3 8 15 12 8 3 3 5 3 4 5 4 2 4 2 2 6 4 3 1 0 3 7 8 11 10 15 9 7 6 12 13 13 11 11
18 18 19 19 19 20 19 19 18 16 13 4 2 1 3 1 1 1 5 6 4 5 4 3 5 5 7 9 6 5 6 7 8 6 1 0 2 3 1 0 1 4 5 9 10 8 3 1 2 3 4 7 5 14 15 13 12 11 7 3 6 4 5 4 3 2 1 3 2 2 2 1 2 1 5 5 2 5 8 12 8 7 6 12 12 12 11
18 18 18 19 19 20 19 19 19 18 16 8 1 3 3 1 2 2 1 3 3 2 1 2 9 9 8 8 5 5 7 11 8 4 5 1 0 4 3 3 6 7 8 4 4 2 2 5 3 5 5 5 4 7 4 6 10 11 12 10 5 6 3 4 3 0 3 1 3 3 0 1 5 4 5 4 2 3 1 5 3 4 2 5 13 11 11
18 18 18 19 19 19 19 19 19 19 18 15 2 3 3 4 1 2 1 5 3 2 6 4 5 4 5 6 7 8 7 6 8 7 5 1 1 2 3 7 8 8 5 1 3 3 1 2 3 2 4 5 2 1 2 2 2 7 8 8 9 4 3 2 4 1 4 5 4 2 1 4 1 2 3 2 3 3 4 3 2 2 4 4 13 13 11
17 17 17 18 19 19 19 19 19 18 18 17 2 2 3 4 1 2 2 2 5 5 6 2 1 2 2 3 4 5 4 4 5 4 6 5 5 10 9 9 8 5 5 2 1 2 2 3 1 3 1 1 1 2 2 1 3 5 4 8 9 7 6 5 6 2 3 3 4 2 3 1 1 5 4 4 6 5 2 4 1 1 6 7 10 13 10
17 17 17 18 18 18 19 19 18 18 17 15 5 3 6 7 4 1 3 5 7 4 2 2 3 3 4 5 6 6 4 3 4 3 4 6 5 5 8 10 6 6 8 3 5 4 5 4 2 3 0 0 1 3 1 2 1 4 8 6 10 10 6 6 6 4 2 3 3 1 0 1 1 3 5 4 4 2 2 1 4 5 7 9 8 14 13
17 17 17 18 18 18 19 18 19 18 19 18 5 1 4 6 5 2 5 5 5 3 2 3 5 5 5 1 0 2 1 3 5 1 1 4 4 5 6 6 9 5 4 5 4 5 3 2 4 3 2 1 1 3 1 2 2 0 1 1 3 4 4 6 2 2 4 5 2 2 0 2 2 3 6 6 4 0 5 6 3 5 7 7 6 9 9
16 17 17 18 18 18 18 18 18 19 18 20 8 1 3 5 7 6 6 4 5 4 1 1 3 3 0 1 1 0 0 0 0 2 4 5 3 8 7 4 2 5 8 3 4 4 2 2 1 2 3 4 3 1 1 4 0 0 2 3 5 4 2 2 3 5 2 1 4 2 0 0 4 7 4 3 1 2 5 1 1 6 7 6 6 7 5
15 16 17 17 18 18 19 18 19 19 19 20 8 2 3 3 4 4 4 2 1 3 1 1 1 4 0 3 3 6 5 6 2 4 1 1 6 6 6 7 7 4 6 3 5 1 4 3 2 1 5 2 1 2 3 2 2 2 1 0 3 2 2 1 1 1 1 3 3 3 1 2 9 12 3 4 2 1 1 3 6 4 7 7 5 5 8
15 16 16 17 17 18 18 18 19 19 20 21 11 2 5 4 4 2 1 4 4 5 2 2 1 3 1 3 3 5 6 4 4 4 1 3 4 2 3 1 5 2 3 3 3 3 2 4 3 2 1 1 3 4 1 1 4 4 2 2 2 0 2 1 1 0 1 2 2 1 2 5 10 2 3 2 1 2 3 8 7 6 6 8 9 8 7
14 15 16 16 17 17 18 18 18 18 18 19 13 2 3 5 5 4 0 4 3 2 3 2 1 2 2 4 4 4 6 5 1 2 0 3 5 4 2 0 2 1 1 1 4 3 4 1 1 3 4 4 4 3 0 5 3 3 3 4 3 6 2 1 4 3 1 2 3 0 1 2 4 6 6 4 5 6 7 10 7 8 7 5 10 9 8
14 15 15 15 16 17 17 17 17 17 17 19 11 4 1 5 8 7 3 5 3 1 3 3 2 2 3 2 0 2 2 4 5 3 3 3 3 3 3 3 4 1 1 2 0 2 1 1 1 3 3 2 2 3 8 4 3 3 4 4 5 3 7 7 9 5 9 8 4 3 3 5 7 7 5 6 6 7 8 10 10 7 6 7 10 9 9
13 14 14 15 15 16 16 17 17 16 16 15 8 2 3 4 5 6 5 5 3 1 4 5 5 2 1 5 4 5 5 3 1 1 1 4 4 3 3 1 1 2 1 2 3 1 1 2 0 2 5 2 2 4 4 5 2 0 3 2 1 1 1 4 6 4 3 3 1 4 4 4 7 7 7 7 8 8 7 9 8 8 8 10 9 10 9
13 14 14 15 15 15 16 16 16 16 15 15 10 4 2 4 4 5 2 1 3 3 2 2 1 3 3 0 1 3 1 2 1 2 3 5 6 3 1 3 1 0 3 5 2 6 4 4 4 3 5 1 1 2 0 6 3 1 4 1 2 3 1 8 3 4 5 3 4 3 3 3 2 5 7 7 8 8 7 7 7 8 8 8 8 8 8
13 13 14 14 15 15 15 15 16 15 14 14 9 3 2 2 6 2 5 2 2 2 3 1 1 3 1 5 3 1 1 6 4 6 4 1 2 3 1 2 4 2 1 1 5 6 2 3 3 2 4 2 2 4 3 1 4 2 7 1 1 1 2 1 1 5 5 7 4 5 5 6 4 4 4 5 6 8 7 7 8 8 10 9 7 5 6
13 13 14 14 15 15 15 15 15 15 15 13 5 1 1 3 2 4 2 1 3 2 4 1 3 4 3 3 0 1 4 4 6 5 7 8 7 6 6 4 5 5 7 5 3 4 3 3 4 3 2 0 1 1 2 4 3 3 3 4 3 5 4 1 7 7 4 5 6 5 5 1 1 3 3 3 4 8 8 6 7 7 8 8 9 6 5
13 13 14 14 15 15 15 16 15 15 15 13 5 3 3 0 2 1 3 2 1 4 4 1 1 3 1 3 2 1 4 4 4 5 6 7 7 6 7 6 4 5 4 4 6 6 4 6 3 0 1 1 4 3 2 2 3 6 6 4 0 4 3 4 5 7 4 4 8 3 6 6 5 6 3 4 3 5 7 6 6 5 5 7 8 8 7
13 13 13 14 15 15 15 15 15 13 15 10 4 3 2 0 1 5 5 3 2 4 2 1 2 2 2 2 1 2 1 2 3 4 5 7 6 5 6 5 5 2 3 4 3 2 3 1 0 2 1 1 3 2 4 5 3 4 2 3 3 2 2 5 5 5 1 3 6 6 5 6 4 4 4 5 3 5 5 4 4 5 5 5 6 7 8
12 13 13 14 14 14 15 14 14 13 11 5 2 3 2 1 2 4 6 4 2 2 2 1 3 1 3 1 2 3 1 2 5 5 6 5 5 5 5 5 5 3 3 3 3 4 0 2 2 1 1 1 2 2 3 1 4 1 2 2 3 4 4 3 2 5 2 0 3 4 6 8 5 5 4 4 3 5 6 5 5 5 3 4 6 5 6
13 13 14 14 14 14 14 13 11 11 7 2 2 2 1 1 1 2 7 4 2 2 2 2 1 2 2 1 0 1 1 1 2 4 3 3 2 1 1 4 4 4 5 5 4 0 2 3 1 3 3 3 3 2 3 4 3 2 3 2 4 5 5 4 4 4 4 5 6 6 8 7 6 7 6 5 5 6 5 4 5 6 4 5 6 7 6
13 14 14 14 14 14 13 11 9 6 2 2 2 2 2 2 1 5 6 3 2 2 1 2 1 1 0 2 1 1 1 1 1 2 2 2 3 4 4 5 2 2 3 1 0 2 2 0 2 2 3 3 5 2 4 6 6 4 1 5 5 6 5 6 6 6 7 5 10 8 6 4 4 8 4 3 4 4 7 7 7 6 6 5 4 6 7
14 14 15 15 14 13 12 10 7 4 2 5 7 7 8 10 10 7 3 3 1 0 2 2 1 1 1 1 2 3 2 3 4 3 2 2 1 2 2 2 2 2 4 4 3 1 1 1 1 4 3 2 3 2 3 3 3 4 4 5 5 7 7 5 6 5 6 5 4 4 3 3 3 6 8 6 5 6 5 6 4 5 7 8 7 6 5
15 15 15 15 14 13 11 10 7 6 3 2 2 2 1 1 1 4 1 1 1 0 1 1 1 1 0 3 4 3 2 2 0 1 1 3 1 2 0 2 3 3 5 3 1 2 3 3 3 1 3 4 2 5 3 1 1 3 2 4 4 5 5 5 7 7 6 7 6 7 5 4 3 3 3 4 4 3 5 4 4 4 5 7 6 6 5
15 16 15 15 13 11 9 4 2 2 0 1 1 2 1 3 3 2 2 0 1 1 1 1 1 2 1 2 1 2 1 2 1 0 2 2 1 1 1 3 3 5 3 1 3 1 1 1 2 4 1 2 4 2 1 1 1 1 2 4 4 5 5 5 1 4 4 5 7 5 4 6 8 7 6 4 4 3 4 4 5 6 5 5 5 5 5
16 16 15 14 11 6 1 1 1 1 1 0 1 3 3 4 3 1 1 1 1 2 1 0 1 0 3 2 0 1 1 1 1 2 1 0 3 3 2 2 3 2 1 3 1 2 2 0 3 2 3 5 1 1 2 3 5 4 3 1 1 3 5 7 6 4 4 3 5 5 6 4 3 4 3 5 6 4 4 4 1 4 6 6 5 5 5
16 15 13 9 2 1 1 1 1 2 1 3 3 3 2 1 1 2 2 2 1 1 2 0 2 1 2 2 0 2 2 2 3 3 4 3 0 2 3 3 2 2 3 3 3 3 3 0 6 4 4 3 2 1 1 2 5 5 4 2 2 2 3 4 4 6 5 5 5 3 2 2 2 1 5 7 6 5 6 6 7 9 8 7 5 4 5
14 9 1 1 2 2 1 1 0 1 2 6 4 1 3 4 0 2 2 2 1 2 1 2 2 1 1 5 1 4 2 1 1 2 1 0 1 1 1 2 1 1 2 0 1 1 0 4 2 4 1 1 1 1 3 4 3 3 4 4 3 3 4 4 5 4 4 3 2 1 3 5 4 1 6 4 4 5 5 5 4 6 8 6 6 6 5
1 0 1 1 1 0 1 1 1 1 2 3 2 1 1 1 1 1 0 0 1 1 1 3 1 1 4 4 0 2 3 1 3 3 2 2 1 1 1 2 2 2 1 2 2 3 3 3 2 3 3 3 4 2 2 5 5 4 3 2 3 3 3 1 1 3 6 5 5 2 2 4 5 2 4 4 1 2 4 4 5 5 7 7 6 5 5
1 2 0 0 1 1 4 3 3 1 1 1 1 2 0 0 2 0 0 1 1 1 1 2 1 1 1 6 4 3 2 3 2 2 0 1 0 2 1 1 1 2 0 1 2 2 2 1 1 3 1 2 1 1 3 5 6 5 5 4 3 4 4 4 2 2 3 5 4 4 4 5 6 7 7 6 6 5 4 4 5 6 7 7 7 7 6
3 1 1 0 2 2 4 3 1 2 1 1 1 1 1 1 1 1 1 1 0 1 0 2 2 3 3 3 4 3 3 2 1 2 3 2 2 1 2 1 1 2 1 1 2 1 1 3 2 2 2 1 1 0 3 5 5 5 5 5 5 4 4 4 4 6 4 3 4 2 1 4 5 6 6 7 7 7 6 6 6 6 6 5 6 6 5
1 1 1 2 3 3 2 2 1 1 2 0 1 0 0 1 0 2 1 2 1 0 2 2 1 2 2 1 2 2 1 1 1 1 1 1 1 1 0 0 1 2 0 1 0 1 2 2 1 0 1 2 2 0 4 5 3 5 5 4 5 5 5 3 2 2 6 6 5 3 1 2 5 5 6 6 6 7 6 5 4 3 7 7 5 4 5
9 6 2 1 1 0 0 1 1 1 1 1 2 1 1 1 1 2 1 1 1 2 1 0 1 0 1 3 2 0 1 0 1 1 2 0 1 1 2 1 1 2 1 1 1 1 2 1 1 2 4 1 0 2 3 3 2 3 2 3 4 3 4 3 0 1 1 4 6 2 2 3 0 1 4 4 4 3 3 3 4 4 4 5 5 5 5
2 2 0 1 1 1 1 1 1 2 1 0 2 2 1 0 1 1 1 0 0 1 0 3 1 3 2 1 2 1 2 3 2 1 1 0 1 0 1 1 0 2 0 2 1 3 1 0 2 3 1 1 1 2 2 2 3 3 4 3 4 4 5 5 4 3 4 4 5 4 3 2 1 1 0 3 5 6 5 4 4 6 5 5 4 4 4
1 1 1 1 1 1 2 2 1 2 2 1 1 1 2 2 2 2 3 3 3 3 1 4 4 5 3 1 2 1 1 1 1 2 1 0 2 1 1 0 1 1 1 0 1 1 1 0 1 1 1 1 1 1 2 2 2 3 0 2 4 4 5 5 4 2 2 3 3 4 5 6 5 1 0 1 2 5 6 5 4 5 4 4 4 4 4
0 2 2 3 2 2 1 0 0 0 1 2 2 5 3 2 4 3 1 1 4 4 7 4 5 5 3 1 3 1 0 1 1 0 0 1 2 0 0 0 2 2 1 2 1 0 3 3 2 1 2 1 1 2 1 1 1 1 4 3 3 3 1 3 3 2 2 3 2 2 1 2 4 7 2 1 2 4 4 4 4 5 5 3 4 4 4
0 0 1 1 2 1 1 1 2 2 3 2 2 5 6 5 3 2 1 3 5 4 4 2 4 3 4 1 1 2 2 1 1 1 2 2 0 0 1 3 0 0 1 0 0 1 1 3 3 3 3 2 0 0 1 1 1 3 1 1 3 1 0 0 0 1 2 2 3 4 4 2 0 2 4 7 5 1 4 4 5 4 4 5 5 2 3
1 1 1 2 2 1 1 3 2 1 0 3 4 3 3 3 6 5 3 2 4 5 5 3 3 4 3 2 3 1 0 0 1 2 0 1 1 2 1 1 0 1 1 2 2 3 3 2 4 3 3 2 2 2 1 1 1 2 2 2 3 3 3 3 2 2 1 3 4 3 3 4 3 1 1 3 3 4 4 4 4 5 4 4 2 2 4
0 0 0 1 1 1 1 2 1 1 2 2 4 7 8 9 7 4 0 1 5 4 3 4 2 2 0 1 1 1 1 0 2 1 1 2 1 1 1 1 0 1 2 1 2 2 4 5 5 4 2 1 2 1 1 2 1 1 2 2 3 3 3 4 5 4 2 2 3 4 5 5 4 4 2 1 1 6 4 4 4 4 5 5 5 4 3
1 1 1 1 1 1 2 1 4 3 1 3 5 4 5 8 4 1 1 2 1 3 3 4 2 3 0 1 1 1 0 1 0 0 2 0 1 0 1 0 1 2 1 0 3 2 4 5 2 1 1 0 0 1 0 1 2 2 2 2 1 1 2 2 2 1 2 3 3 5 4 4 4 4 5 6 4 1 2 4 3 2 4 3 4 4 3
0 1 2 2 1 1 1 1 3 5 5 6 6 3 2 4 3 1 1 2 2 4 3 2 0 1 1 2 1 1 1 0 2 0 2 1 1 2 2 1 0 2 4 3 4 5 5 4 4 2 0 0 1 1 1 2 1 1 1 1 1 1 1 1 1 1 2 2 3 4 3 5 6 6 5 2 3 1 2 2 1 2 3 2 2 2 3
1 1 1 2 1 2 3 1 2 3 5 4 4 1 3 4 1 0 1 6 4 5 1 0 2 1 1 1 1 1 0 1 0 1 2 1 0 2 1 4 5 4 5 4 2 2 3 4 5 3 3 2 2 2 2 1 1 1 1 2 2 2 3 3 4 3 3 2 0 3 5 5 4 3 2 3 2 1 3 5 4 2 1 1 1 1 1
Wind_Direction
345 344 342 340 340 339 337 339 339 338 337 353 350 314 18 48 217 259 196 184 88 69 35 328 30 314 261 331 313 337 309 277 315 304 333 333 279 300 306 346 5 338 21 319 9 352 272 215 190 172 144 187 212 195 198 154 98 107 306 18 294 89 52 18 295 309 316 331 120 80 66 70 41 9 6 29 18 257 183 171 189 143 137 61 25 91 228
345 344 342 340 341 338 334 336 336 334 339 323 306 25 101 257 279 326 350 50 90 82 95 317 318 290 317 349 284 283 261 290 308 294 332 312 320 302 293 302 105 257 305 343 7 342 32 6 81 19 83 234 230 199 155 117 43 112 218 127 258 55 302 114 17 10 341 347 321 36 22 66 80 336 325 355 352 45 187 110 95 112 217 169 123 182 227
346 344 342 340 340 336 332 333 331 329 322 293 219 174 192 321 285 241 312 6 67 110 177 147 207 287 312 319 327 333 312 298 289 285 279 256 267 317 281 288 310 13 328 7 29 23 38 207 351 55 25 289 12 74 96 89 83 57 155 140 97 99 218 78 96 135 165 215 212 198 105 126 126 1 353 20 31 355 16 118 12 121 322 99 101 108 186
347 345 343 340 340 337 333 331 328 326 322 241 152 224 54 31 101 307 354 6 24 47 54 134 149 124 327 12 294 302 303 312 322 14 274 311 300 196 268 323 27 21 13 35 33 9 2 60 157 17 356 8 15 28 57 44 107 97 83 63 72 127 129 100 155 146 187 209 203 230 117 66 77 322 48 353 31 27 77 97 82 137 235 64 351 139 128
348 347 344 342 341 337 336 332 330 332 332 222 163 131 123 81 81 179 355 339 37 69 349 56 58 86 159 38 320 317 311 294 308 1 7 323 324 304 43 15 29 330 40 30 43 348 10 4 63 8 351 324 30 46 35 35 42 95 68 43 83 65 59 357 346 320 266 200 189 191 122 121 145 97 53 48 41 46 56 49 255 148 80 80 179 138 127
350 349 346 343 342 340 340 336 338 343 353 146 155 92 174 60 250 101 191 126 272 29 325 99 85 354 119 241 38 303 315 347 3 316 222 261 346 38 338 25 32 22 33 102 60 331 22 15 29 328 7 339 349 53 33 51 346 54 56 55 97 119 79 304 43 348 334 313 102 97 89 86 111 114 120 88 67 61 64 334 281 125 151 163 151 130 112
352 351 347 344 344 344 344 343 344 345 352 154 163 97 312 125 214 154 56 91 246 159 210 79 109 48 15 254 4 327 343 355 352 342 312 353 9 19 45 357 9 26 21 77 90 10 55 340 324 29 341 355 346 32 348 26 16 7 59 39 94 80 66 312 43 63 25 11 355 13 99 98 70 46 38 74 95 99 99 72 57 73 65 96 117 100 76
353 351 348 347 347 348 346 347 348 346 345 262 67 60 90 359 53 309 355 66 127 250 14 76 58 72 345 55 335 333 333 7 344 344 43 10 347 349 52 10 352 19 33 47 82 52 110 11 297 304 9 328 71 214 178 210 351 18 51 43 342 93 5 54 9 68 13 5 2 329 106 96 77 40 28 16 42 85 92 106 96 84 60 71 90 84 68
354 352 350 351 352 352 349 351 353 349 350 60 52 34 46 265 163 165 89 32 291 23 31 72 87 54 337 65 308 21 342 10 82 315 290 61 352 341 26 13 355 3 12 27 34 329 319 285 240 255 266 279 258 74 295 96 122 36 68 49 331 40 271 33 42 79 355 2 350 322 88 89 77 34 8 355 351 100 232 110 195 117 126 115 97 74 80
353 353 353 353 355 353 350 354 354 356 352 98 57 26 299 358 294 81 116 79 328 142 310 31 57 12 242 170 280 147 280 295 132 11 299 21 182 257 13 6 55 342 9 338 308 301 298 280 275 263 255 255 271 196 262 235 168 186 109 137 110 156 100 69 58 62 267 279 318 269 2 47 31 12 343 317 308 118 52 48 61 107 137 133 148 174 88
353 355 354 353 354 352 350 355 357 0 10 55 60 336 324 24 336 352 42 86 354 356 80 15 86 236 274 288 319 321 308 337 341 82 293 321 336 335 42 33 67 248 247 256 275 273 274 266 266 262 250 257 1 334 62 77 76 87 98 69 21 121 123 145 158 124 206 316 315 340 51 53 49 16 328 277 249 210 97 52 50 19 39 170 122 118 82
354 355 353 353 351 350 350 352 356 2 11 300 165 254 234 245 71 96 83 82 5 329 80 65 352 304 300 280 33 313 331 330 315 348 252 277 292 329 7 22 89 8 252 254 299 301 287 267 250 229 237 88 54 65 61 53 37 71 133 140 121 106 97 111 118 101 164 4 18 63 58 156 38 347 6 11 44 65 86 68 62 85 92 93 98 105 107
353 354 353 352 351 350 350 351 350 355 4 342 158 272 277 292 129 120 119 106 52 3 29 350 338 20 19 13 358 348 357 353 348 330 258 88 310 337 330 346 278 247 294 305 315 327 355 340 337 40 32 88 86 59 47 41 34 39 43 77 116 139 110 142 52 129 79 62 98 97 234 209 319 318 21 2 50 26 61 57 30 21 89 113 105 108 115
353 354 354 352 351 350 351 351 348 352 357 4 207 245 259 30 70 51 82 98 54 329 218 21 11 8 12 14 11 353 8 5 336 21 6 287 217 329 312 338 314 286 286 298 315 358 18 31 49 19 349 4 19 32 337 33 39 39 38 31 51 127 100 90 108 153 127 138 69 89 100 319 353 10 4 25 14 327 15 108 358 25 12 112 119 123 125
354 354 353 353 352 351 352 351 350 350 352 355 268 295 322 1 104 130 150 91 120 12 32 50 309 341 18 14 13 20 13 339 11 340 309 296 45 294 310 320 319 318 307 28 343 35 123 87 38 51 340 47 70 242 317 42 347 28 53 59 47 32 110 198 104 344 105 122 93 78 50 177 237 228 262 274 226 224 230 110 30 35 82 135 132 135 138
354 354 354 353 352 352 351 351 350 350 353 351 32 338 330 345 317 98 123 139 119 38 332 298 320 33 29 17 355 44 349 348 333 317 352 344 350 340 337 331 323 333 1 58 55 68 42 91 151 83 90 180 204 70 321 338 4 325 21 45 58 39 64 86 105 126 50 58 117 159 166 233 212 275 275 250 258 240 173 64 31 209 142 156 143 134 151
355 354 355 354 354 352 352 352 350 350 356 1 345 345 19 0 25 121 82 46 75 120 267 3 70 77 57 0 5 15 359 15 333 18 336 325 313 318 317 331 324 15 7 78 8 50 30 45 75 131 176 254 70 167 146 68 44 337 335 3 34 38 18 22 56 54 61 121 90 120 133 152 276 275 291 285 273 264 96 164 232 164 166 155 164 146 158
355 355 355 355 354 353 354 353 354 352 356 357 15 38 356 345 2 94 56 101 103 63 346 55 60 46 46 322 55 295 43 359 359 346 107 282 295 346 332 340 343 328 33 78 1 56 37 67 81 91 75 285 137 69 91 151 80 260 9 8 24 3 359 41 91 86 66 88 104 82 12 297 306 288 296 308 295 44 160 217 204 153 146 150 162 152 162
356 355 355 355 354 354 355 355 356 355 358 0 349 74 350 354 356 51 111 71 79 90 292 121 104 92 99 54 108 42 105 316 27 86 317 351 326 316 285 279 17 353 357 37 37 60 59 339 349 94 93 353 33 75 20 43 309 23 72 21 16 9 52 354 52 27 49 83 89 127 179 262 337 308 305 281 58 141 226 236 312 130 129 133 147 159 172
356 356 355 354 354 354 355 357 357 358 360 1 18 112 252 326 0 43 81 111 109 114 306 60 118 105 74 102 48 40 353 25 51 115 64 301 288 342 35 1 341 40 351 42 43 351 74 14 309 23 33 33 351 115 59 39 47 93 93 1 107 317 79 6 59 296 31 40 68 48 52 298 350 308 340 13 113 217 157 112 46 88 110 111 99 103 117
355 355 354 353 354 355 356 357 359 359 1 359 3 36 355 326 5 23 101 132 119 83 338 318 62 131 127 108 141 139 115 87 15 17 297 207 267 81 79 194 273 343 359 31 58 333 17 349 356 44 259 99 309 52 127 143 29 3 107 109 98 325 80 18 29 231 125 59 76 145 293 300 328 30 122 326 294 152 114 97 81 51 79 94 92 75 94
353 353 353 353 354 355 355 357 358 0 1 2 357 41 37 314 325 337 83 118 99 145 178 221 243 132 120 171 166 150 145 157 181 170 31 23 340 81 159 153 284 27 296 82 34 4 4 279 10 48 22 348 7 84 191 76 49 309 12 61 38 323 133 167 108 341 104 143 129 116 241 330 3 41 72 62 53 80 92 84 83 92 69 77 90 92 86
351 352 352 352 354 354 354 355 357 360 2 1 12 70 8 316 336 335 28 47 343 359 3 10 357 347 342 25 89 174 123 134 113 72 120 107 0 4 67 37 332 249 333 97 142 144 213 97 73 146 78 48 67 39 36 88 118 12 53 352 131 70 106 114 85 67 80 62 90 148 48 50 52 42 46 60 59 49 71 86 89 64 77 79 93 92 90
350 352 351 352 352 352 353 353 355 357 358 2 7 15 328 305 293 352 14 65 96 55 339 360 62 350 313 35 349 24 50 34 36 118 157 122 92 335 323 273 219 20 349 273 194 141 225 118 101 98 87 336 69 48 91 49 44 22 69 40 343 278 28 46 100 180 61 77 86 87 103 78 79 70 58 59 61 64 68 75 75 86 83 83 80 88 89
348 349 349 349 351 351 352 352 352 352 352 357 358 297 262 346 341 7 77 65 353 85 134 317 318 228 227 37 87 46 34 117 69 77 66 83 120 121 87 280 211 316 298 317 35 58 42 67 14 43 81 330 107 32 1 104 340 93 76 353 30 16 47 77 73 56 88 139 157 138 119 88 72 95 95 83 74 70 62 76 82 84 80 85 96 96 87
345 346 346 346 348 348 349 351 349 347 345 351 10 17 22 272 298 5 91 55 100 106 93 116 292 311 47 55 53 116 32 37 28 20 7 352 132 140 127 0 13 18 40 40 57 74 83 48 70 88 98 359 67 98 28 160 146 95 99 46 267 225 51 107 143 91 68 72 78 99 68 44 31 54 72 93 102 98 84 72 76 77 80 78 67 78 110
342 343 343 343 344 345 347 347 347 341 338 342 6 303 247 280 319 54 88 163 90 7 31 42 284 299 8 84 179 37 33 30 14 19 12 6 23 39 60 48 34 10 43 22 26 96 60 84 82 33 79 134 59 97 122 28 56 57 32 314 351 52 73 107 87 104 153 169 177 149 102 135 170 128 137 106 106 109 105 100 92 93 91 87 90 70 70
338 338 340 340 341 341 343 343 341 339 336 338 345 297 232 152 357 74 88 108 119 171 172 230 337 275 306 48 332 117 105 60 36 26 12 10 23 49 56 48 56 56 14 64 19 25 34 55 8 233 106 333 52 7 359 105 68 42 36 339 332 110 178 123 142 154 209 207 181 163 124 126 180 175 179 132 131 115 120 119 117 108 109 110 103 99 82
331 333 335 336 337 337 338 339 337 336 336 339 335 27 53 214 342 39 36 0 94 98 96 258 296 8 91 228 312 23 326 85 69 43 27 7 23 38 56 56 57 96 82 65 95 99 86 77 149 81 35 200 95 11 35 50 56 70 340 323 17 325 136 133 160 137 103 136 145 136 127 140 174 174 157 166 165 121 110 102 113 124 123 116 106 115 112
327 330 330 333 332 332 333 335 335 335 337 346 37 57 35 325 341 36 17 34 48 113 86 91 79 241 284 27 340 321 354 15 51 50 38 22 12 33 39 49 27 46 89 109 129 77 216 115 324 305 315 45 116 150 70 104 75 58 299 17 38 34 43 67 118 112 158 177 126 109 106 110 116 127 123 120 116 119 116 127 127 105 92 111 114 105 110
325 327 328 328 328 326 329 331 332 333 348 44 76 62 49 38 296 323 10 2 27 107 130 99 138 275 18 283 190 308 359 354 44 64 33 14 335 312 349 75 27 66 41 3 40 37 83 27 29 335 320 36 97 89 143 101 81 23 323 60 84 66 58 38 20 64 98 89 73 79 90 92 98 89 80 106 120 111 102 100 116 116 122 96 106 117 117
324 324 324 324 321 320 321 321 321 326 5 62 100 153 179 188 222 308 341 327 26 59 66 65 355 15 260 313 284 277 86 18 54 31 354 24 9 358 14 72 92 44 118 106 206 43 30 241 91 331 43 335 70 91 68 89 114 149 215 80 81 92 91 77 64 49 42 68 94 76 78 106 133 133 166 183 146 124 127 141 144 143 125 110 112 113 128
322 321 318 315 314 314 312 307 302 305 252 257 258 274 270 269 275 286 357 3 57 114 122 82 145 211 103 234 320 335 22 25 13 34 359 329 36 25 27 355 33 29 347 74 357 95 246 82 5 40 320 38 74 77 77 73 152 195 175 121 105 104 101 98 95 86 77 62 74 111 151 138 158 158 158 166 151 135 132 133 151 116 97 98 100 98 83
316 313 310 309 309 308 307 301 293 279 299 342 22 351 303 243 338 334 55 110 108 1 73 112 50 54 197 311 72 286 36 105 297 59 47 301 170 67 305 34 358 81 329 87 289 56 342 61 46 315 354 14 44 75 60 74 167 168 141 112 107 81 84 94 105 111 122 124 119 125 146 139 120 91 105 131 151 151 128 131 125 107 96 115 120 124 131
309 306 306 305 302 302 306 318 31 57 19 299 254 253 213 169 213 223 99 108 77 344 32 350 114 79 27 8 57 272 287 83 33 226 121 279 59 96 0 63 334 63 298 80 38 91 97 232 186 63 327 336 46 45 89 183 62 38 67 90 85 88 77 69 51 142 150 145 125 124 130 132 132 156 159 140 143 146 120 137 154 125 121 148 140 147 143
305 303 301 300 302 300 335 37 65 62 26 272 237 207 181 213 255 315 146 166 127 139 94 240 72 187 141 137 121 276 9 56 296 15 9 67 359 359 83 111 47 265 228 73 149 357 55 313 72 18 314 66 28 146 166 140 111 104 97 37 276 164 173 160 165 154 129 110 108 123 113 101 136 170 141 157 146 151 134 118 120 113 138 151 171 162 141
300 299 301 299 309 48 15 237 247 142 204 205 233 274 309 83 3 36 21 32 351 97 133 134 54 292 161 179 216 288 59 39 1 46 348 34 178 289 40 36 63 318 38 4 14 23 294 271 90 66 36 94 83 299 230 142 107 108 109 125 124 106 103 131 148 123 84 81 87 82 118 119 55 110 152 160 163 157 128 133 139 136 148 153 156 151 166
296 297 314 36 37 44 357 315 272 244 262 311 357 39 354 27 68 338 357 33 280 61 343 71 58 308 26 75 42 267 69 297 45 105 325 240 54 348 10 88 231 63 50 77 306 224 351 39 67 102 67 286 233 131 126 100 118 120 107 92 80 118 150 158 138 108 116 102 84 110 55 62 38 77 148 164 155 145 163 162 143 140 146 153 167 169 171
240 87 49 29 101 200 182 256 274 15 11 318 56 62 346 0 61 14 301 258 30 16 284 91 56 42 78 68 59 297 115 135 33 31 88 301 93 320 17 71 311 70 339 47 299 49 50 2 46 44 50 342 19 0 355 72 53 41 55 53 71 84 110 79 62 161 168 175 191 188 151 150 134 123 129 128 144 166 170 152 138 141 148 158 165 168 160
41 37 68 29 97 250 256 279 335 17 57 63 322 103 45 322 93 271 282 53 347 294 57 41 201 138 149 143 134 3 342 70 63 48 134 324 353 121 259 79 276 89 54 76 272 15 104 93 353 68 16 322 358 322 53 69 64 30 41 34 46 56 59 36 38 121 183 195 185 196 157 159 147 148 153 160 159 167 196 183 166 154 157 170 176 155 170
6 358 24 105 267 321 299 299 0 49 65 32 10 355 69 355 298 187 71 49 108 232 203 152 21 33 352 62 74 96 290 84 177 148 113 107 254 73 44 71 235 79 343 25 289 56 61 71 38 111 204 246 242 179 84 65 63 51 41 36 34 34 52 58 27 65 62 48 66 48 156 156 132 148 161 164 171 176 187 187 191 170 167 167 181 193 184
206 186 221 289 279 268 311 6 68 40 4 133 113 287 218 205 299 14 117 126 227 253 339 69 56 125 81 128 166 128 315 205 110 94 98 53 313 105 210 328 16 103 128 243 194 46 71 89 51 48 258 268 271 345 77 68 51 65 33 29 41 34 29 37 39 37 109 94 64 50 342 154 135 142 151 158 174 186 196 198 221 185 174 188 184 151 153
278 248 167 315 0 340 101 47 308 106 108 3 41 28 339 64 215 150 279 283 299 96 263 105 161 153 335 45 32 45 169 246 90 347 70 116 293 55 79 22 57 41 249 294 67 48 43 77 136 241 253 278 36 91 91 127 118 74 48 42 39 36 53 38 291 288 47 122 125 123 292 288 340 208 168 135 115 116 150 174 181 193 194 187 186 173 174
126 96 45 331 66 300 74 30 289 49 0 57 102 152 216 41 309 7 57 343 6 37 133 120 222 102 117 332 135 325 10 359 40 70 31 316 86 17 56 58 184 239 34 38 49 86 165 163 195 215 243 270 358 78 117 63 44 38 32 12 11 27 20 33 30 58 63 42 44 50 29 298 173 202 184 129 145 149 169 175 188 168 184 182 167 180 178
81 15 37 20 30 272 64 302 318 118 181 238 139 166 155 170 229 150 166 238 96 175 34 74 94 86 123 272 42 8 109 164 304 96 246 73 46 5 99 257 261 30 86 216 344 9 45 89 289 323 223 109 57 115 138 117 114 98 89 2 356 6 35 53 44 48 44 55 56 27 18 343 317 291 293 272 199 169 154 178 198 170 183 198 185 168 184
98 146 96 86 347 308 115 187 74 24 290 140 198 195 161 218 159 126 214 106 93 75 72 80 64 76 47 298 127 195 9 88 58 352 157 69 98 31 244 329 65 65 12 41 63 140 202 221 240 256 261 233 232 249 245 184 160 99 67 31 323 8 63 112 119 126 153 148 161 130 100 36 3 343 355 109 146 200 203 202 190 189 187 183 239 222 194
32 347 111 114 107 263 107 155 230 202 176 195 198 152 126 122 128 125 100 87 110 163 126 90 94 147 115 359 23 354 29 52 101 272 66 55 150 251 19 85 45 112 115 272 240 223 253 256 236 232 224 213 263 0 98 93 55 77 58 347 3 352 271 157 180 182 218 191 136 118 113 116 352 34 18 359 348 248 212 205 217 200 164 198 221 189 179
138 241 91 103 213 185 148 248 214 303 244 144 166 144 124 122 73 51 13 81 126 80 69 52 31 353 23 315 89 160 250 63 71 312 165 175 34 47 18 34 1 256 167 154 220 220 213 230 217 226 227 193 142 91 27 8 4 20 348 326 303 300 259 238 240 270 248 173 174 172 167 166 152 216 333 34 12 339 325 279 219 189 196 202 225 221 176
184 107 140 200 201 152 245 252 95 40 318 16 94 102 99 90 106 123 168 50 76 96 139 113 165 92 23 266 93 50 28 329 88 252 21 32 94 197 137 204 280 346 279 155 192 206 206 213 217 216 209 154 170 156 186 197 180 258 282 306 292 286 291 267 247 242 259 253 198 192 205 206 197 184 137 117 317 299 322 336 284 233 188 183 180 183 195
93 349 5 42 13 323 255 86 92 115 57 78 70 88 104 99 94 354 249 65 81 87 23 42 47 95 214 92 3 19 22 324 156 37 58 27 182 185 72 19 237 174 238 335 118 194 207 215 190 147 203 176 236 257 276 282 284 301 302 261 249 339 334 309 289 268 238 237 226 226 218 197 207 195 185 208 220 242 326 350 357 334 297 252 204 190 197
316 123 232 185 148 224 53 42 168 142 115 135 133 154 110 114 136 86 316 116 59 50 45 107 168 83 25 25 48 50 261 225 47 110 157 201 232 110 162 160 202 176 180 188 184 189 190 195 160 166 203 281 255 255 240 236 230 211 217 223 268 286 296 269 231 242 246 246 224 179 188 215 216 206 214 196 170 168 291 282 309 79 104 82 14 327 290
43 50 329 287 257 196 197 175 76 131 136 156 118 189 109 75 164 249 6 87 55 86 133 262 73 64 64 112 220 194 14 44 19 30 29 313 114 107 166 170 192 204 182 175 195 195 175 180 177 173 190 211 246 259 271 285 182 181 225 261 266 289 303 305 307 293 293 321 240 199 229 232 217 211 188 163 170 167 255 266 251 187 125 85 32 28 303